Regional Weather Roundup
Issued by NWS Sterling, VA

Home | Current Version | Previous Version | Graphics & Text | Print | Product List | Glossary On
Versions: 1 2 3 4 5 6 7 8 9 10 11 12 13 14 15 16 17 18 19 20 21 22 23 24 25 26 27 28 29 30 31 32 33 34 35 36 37 38 39 40 41 42 43 44 45
000
ASUS41 KLWX 290010
RWRLWX

REGIONAL WEATHER ROUNDUP
NATIONAL WEATHER SERVICE BALTIMORE MD/WASHINGTON DC
800 PM EDT FRI AUG 28 2015

Note: "FAIR" indicates few or no clouds below 12,000 feet
with no significant weather and/or obstructions to visibility.
 TC=TEMPERATURE CELSIUS

 * =Non NWS site. Station does not report precipitation (e.g. rain,
    snow, etc.), thunder, or fog.

DCZ001-MDZ009-015-VAZ040>042-051-053>054-290100-
WASHINGTON METRO

CITY           SKY/WX    TMP DP  RH WIND       PRES   REMARKS
WASHINGTON NAT PTCLDY    77  62  59 SE9       30.15R
DULLES         PTCLDY    76  58  53 S5        30.15R
ANDREWS AFB    CLEAR     71  61  70 SE5       30.15R
FT BELVOIR     CLEAR     73  63  70 E3        30.14R
QUANTICO       CLEAR     74  65  73 NW3       30.15R
COLLEGE PARK*  CLEAR     75  59  57 SE3       30.15R
LEESBURG*      CLEAR     79  63  57 CALM      30.16R
MANASSAS*      CLEAR     72  66  83 CALM      30.14S
GAITHERSBURG*  CLEAR     72  57  60 SE5       30.19R

$$

MDZ006>007-011-014-290100-
BALTIMORE METRO

CITY           SKY/WX    TMP DP  RH WIND       PRES   REMARKS
BWI AIRPORT    PTCLDY    73  60  63 CALM      30.14S
MD SCIENCE CTR   N/A     77  58  51 MISG      30.15R
MARTIN STATE   CLEAR     75  63  64 CALM      30.15F
ANNAPOLIS      CLEAR     77  58  51 SE7       30.14S
FORT MEADE*    CLEAR     66  61  82 CALM      30.18R

$$

MDZ012-015-019>023-290100-
MARYLAND EASTERN SHORE

CITY           SKY/WX    TMP DP  RH WIND       PRES   REMARKS
OCEAN CITY     CLEAR     72  56  57 S3        30.17S
SALISBURY      CLEAR     69  61  75 SE5       30.16S
BAY BRIDGE AP*   N/A     72  55  56 CALM      30.15S
CAMBRIDGE*     CLEAR     72  61  68 CALM      30.15S

$$

MDZ017>025-290100-
SOUTHERN MARYLAND

CITY           SKY/WX    TMP DP  RH WIND       PRES   REMARKS
PATUXENT RIVER PTCLDY    72  59  63 S3        30.15S
ST INIGOES     CLEAR     68  63  84 CALM      30.14S
LEONARDTOWN*   CLEAR     70  57  64 CALM      30.17R

$$

MDZ003>005-290100-
NORTH CENTRAL MARYLAND

CITY           SKY/WX    TMP DP  RH WIND       PRES   REMARKS
FREDERICK*     NOT AVBL
HAGERSTOWN APT CLEAR     77  55  46 E6        30.15R
WESTMINSTER*   CLEAR     73  57  56 CALM      30.17R

$$

MDZ501>502-290100-
WESTERN MARYLAND

CITY           SKY/WX    TMP DP  RH WIND       PRES   REMARKS
OAKLAND*       CLEAR     64  52  63 CALM      30.24S
CUMBERLAND*    PTCLDY    72  59  64 CALM      30.18R

$$

VAZ025>031-290100-
SHENANDOAH VALLEY

CITY           SKY/WX    TMP DP  RH WIND       PRES   REMARKS
WINCHESTER*    CLEAR     73  61  64 SE3       30.16R
FRONT ROYAL*   FAIR      73  61  64 CALM      30.14R
LURAY*         CLOUDY    75  61  60 E3        30.15R
NEW MARKET*    CLOUDY    72  65  76 CALM      30.13R
STAUNTON*      CLOUDY    78  61  55 CALM      30.18R
WAYNESBORO*    CLOUDY    75  62  62 CALM      30.17R

$$

WVZ021-048>050-054>055-290100-
EASTERN WEST VIRGINIA PANHANDLE

CITY           SKY/WX    TMP DP  RH WIND       PRES   REMARKS
MARTINSBURG    PTCLDY    74  59  59 E3        30.15R
PETERSBURG*    MOCLDY    73  64  73 CALM      30.15R

$$

VAZ036>039-050-290100-
CENTRAL FOOTHILLS

CITY           SKY/WX    TMP DP  RH WIND       PRES   REMARKS
CHARLOTTESVILL   N/A     77  62  59 SE5       30.14R
CULPEPER*      CLEAR     70  64  82 CALM      30.15R
ORANGE*        PTCLDY    77  61  57 CALM      30.16R
GORDONSVILLE*  FAIR      72  65  80 CALM      30.14R
WARRENTON*     FAIR      72  65  80 CALM      30.14R

$$

VAZ055>057-290100-
NORTH AND CENTRAL PIEDMONT

CITY           SKY/WX    TMP DP  RH WIND       PRES   REMARKS
FREDERICKSBRG* CLEAR     78  64  62 SE3       30.13R
STAFFORD*      CLEAR     71  64  78 CALM      30.18R

$$

NCZ024-NYZ072-PAZ021-071-VAZ022-071-290100-
OTHER REGIONAL OBSERVATIONS

CITY           SKY/WX    TMP DP  RH WIND       PRES   REMARKS
NEW YORK CITY  PTCLDY    77  50  38 VRB5      30.18R
PHILADELPHIA   PTCLDY    80  52  37 NW7       30.15R
PITTSBURGH     MOCLDY    75  53  46 N6        30.15S
ROANOKE        PTCLDY    76  59  55 SE7       30.18R
RICHMOND       CLEAR     75  61  61 E6        30.14S
RALEIGH        PTCLDY    79  57  46 E5        30.14S

$$

ANZ530>537-290100-
MARINE OBSERVATIONS

STATION/POSITION TIME  TEMP    WIND        PRES
                       AIR SEA DIR/SP/G
                 (UTC) (F)     (DEG/KT/KT) (MB)
THOMAS PT LIGHT  NOT AVBL

$$



USA.gov is the U.S. government's official web portal to all federal, state and local government web resources and services.